Location: Ergnies
(50.0854°N, 2.0375°E)
Time: 15:06:34
(UTC+00:00)

Cosmos 1295 Rocket - Pass Details

Date: 14 January 2026
Orbit: 942 x 994 km, 82.9° (Epoch: 18 February)

Event Time Altitude Azimuth Distance (km) Brightness Sun altitude
Rises 05:55:08 0° 198° (SSW) 3,698 7.5 -17.1°
Reaches altitude 10° 05:57:42 10° 202° (SSW) 2,751 6.8 -16.7°
Maximum altitude 06:03:58 64° 283° (WNW) 1,094 4.5 -15.7°
Drops below altitude 10° 06:10:14 10° 5° (N) 2,748 6.7 -14.7°
Sets 06:12:47 0° 8° (N) 3,693 7.5 -14.3°
